TimeCDT,TemperatureF,Dew PointF,Humidity,Sea Level PressureIn,VisibilityMPH,Wind Direction,Wind SpeedMPH,Gust SpeedMPH,PrecipitationIn,Events,Conditions,WindDirDegrees,DateUTC
12:56 AM,64.0,61.0,90,30.14,10.0,Calm,Calm,-,N/A,,Clear,0,2013-08-27 05:56:00
1:56 AM,63.0,60.1,90,30.12,10.0,NNE,3.5,-,N/A,,Clear,20,2013-08-27 06:56:00
2:56 AM,63.0,59.0,87,30.12,10.0,NNE,3.5,-,N/A,,Clear,20,2013-08-27 07:56:00
3:56 AM,63.0,59.0,87,30.10,10.0,Calm,Calm,-,N/A,,Partly Cloudy,0,2013-08-27 08:56:00
4:56 AM,62.1,59.0,90,30.11,10.0,Calm,Calm,-,N/A,,Scattered Clouds,0,2013-08-27 09:56:00
5:56 AM,62.1,59.0,90,30.11,10.0,Calm,Calm,-,N/A,,Clear,0,2013-08-27 10:56:00
6:56 AM,63.0,59.0,87,30.12,10.0,Calm,Calm,-,N/A,,Scattered Clouds,0,2013-08-27 11:56:00
7:56 AM,69.1,62.1,78,30.13,10.0,Calm,Calm,-,N/A,,Clear,0,2013-08-27 12:56:00
8:56 AM,77.0,64.0,64,30.13,10.0,NNE,3.5,-,N/A,,Clear,30,2013-08-27 13:56:00
9:56 AM,81.0,64.0,56,30.13,10.0,Calm,Calm,-,N/A,,Clear,0,2013-08-27 14:56:00
10:56 AM,82.9,62.1,49,30.13,10.0,Calm,Calm,-,N/A,,Clear,0,2013-08-27 15:56:00
11:56 AM,84.0,63.0,49,30.12,10.0,ENE,8.1,-,N/A,,Scattered Clouds,70,2013-08-27 16:56:00
12:56 PM,86.0,63.0,46,30.10,10.0,NE,8.1,-,N/A,,Partly Cloudy,50,2013-08-27 17:56:00
1:56 PM,86.0,63.0,46,30.09,10.0,Calm,Calm,-,N/A,,Scattered Clouds,0,2013-08-27 18:56:00
2:56 PM,84.9,64.9,51,30.06,10.0,Calm,Calm,-,N/A,,Clear,0,2013-08-27 19:56:00
3:56 PM,84.0,64.0,51,30.06,10.0,Variable,4.6,-,N/A,,Partly Cloudy,0,2013-08-27 20:56:00
4:56 PM,84.0,64.9,53,30.05,10.0,North,6.9,-,N/A,,Clear,360,2013-08-27 21:56:00
5:56 PM,82.9,66.0,56,30.05,10.0,NNE,3.5,-,N/A,,Clear,20,2013-08-27 22:56:00
6:56 PM,79.0,66.9,66,30.05,10.0,North,3.5,-,N/A,,Clear,350,2013-08-27 23:56:00
7:56 PM,75.0,68.0,79,30.05,10.0,Calm,Calm,-,N/A,,Clear,0,2013-08-28 00:56:00
8:56 PM,72.0,68.0,87,30.06,10.0,Calm,Calm,-,N/A,,Clear,0,2013-08-28 01:56:00
9:56 PM,70.0,66.9,90,30.07,10.0,Calm,Calm,-,N/A,,Clear,0,2013-08-28 02:56:00
10:56 PM,69.1,66.0,90,30.07,10.0,Calm,Calm,-,N/A,,Clear,0,2013-08-28 03:56:00
11:56 PM,69.1,64.9,87,30.06,10.0,Calm,Calm,-,N/A,,Clear,0,2013-08-28 04:56:00